FENGYUN 1C DEB

Satellite information

Favourite Embed

Satellite Type and Status

DEBRISIN ORBIT

Key statistics

Satellite FENGYUN 1C DEB at a glance.

Uptime

9555

Days in orbit

Revolutions

≈ 14.5

Per day

Orbit

SSO

Sun Synchronous Orbit

Inclination

98.6

Latest

Satellite identification and parameters

Extended collection of information and parameters for FENGYUN 1C DEB.

Object identification

Identified? True

Debris? True

Object name: FENGYUN 1C DEB

International designator: 1999-025ZN

Object number (NORAD): 30301

Object ID (CCSDS): 30301

Country: PEOPLES REPUBLIC OF CHINA (PRC)

Current information (Y/N): Y

RCS size: SMALL

Orbital parameters

Period: 99.505 minutes

Inclination: 98.6408 deg

SMA: 7113.046 km

Apoapsis: 788.436 km

Periapsis: 681.386 km

RAAN: 334.2951 deg

Eccentricy: 0.0075249

Argument of periapsis: 56.3171 deg

Mean anomaly: 2.8446 deg

Mean motion: 14.47169392 rev/day

Mean motion (dot): 0.00008556 rev/day2

B* drag term: 0.0022729 1/REarth

Two-line elements (TLE)

Creation date: July 6, 2025, 6:05 p.m.

Reference frame: TEME

Reference center: EARTH

Epoch: July 6, 2025, 2:25 a.m. UTC

TLE line 0: 0 FENGYUN 1C DEB

TLE line 1: 1 30301U 99025ZN 25187.10134869 .00008556 00000-0 22729-2 0 9995

TLE line 2: 2 30301 98.6408 334.2951 0075249 56.3171 2.8446 14.47169392949047

Live tracking on map

Real-time ground track for satellite FENGYUN 1C DEB.

In-orbit conjunctions

A list of the most updated potential collisions computed for object FENGYUN 1C DEB.

Target Orbit TCA Probability of collision Miss distance Type
COSMOS 1125 LEO 2025-06-14 12:14:23 0.000228355 701.0 (m) PAYLOAD
COSMOS 1275 DEB LEO 2024-08-22 20:50:50 0.00010039 168.0 (m) DEBRIS

Associated space launch

Chinese polar orbiting meteorological satellite

FENGYUN 1C DEB was lifted into orbit during the mission ‘Long March 4B | Feng Yun 1C’, on board a Long March 4B space rocket.

The launch took place on May 10, 1999, 1:33 a.m. from Launch Complex 7.

For more information about the launch, click the button.

Launch to space Long March 4B | Feng Yun 1C
Long March 4B | Feng Yun 1C

Agency: N/A

Status: Launch Successful

Launch date: May 10, 1999, 1:33 a.m. UTC

Rocket: Long March 4B

Launch pad: Launch Complex 7

Location: Taiyuan Satellite Launch Center, People's Republic of China

...

Latest news about this satellite

There are no fresh news available about this satellite. Check back as we update our databases every day.


Newsletter sign-up

Weekly statistics, charts and insights to help you stay on top of the space industry.